Back to catalog

ONEWEB-0668

AliveCommunicationsPO
NORAD 56711·PAYLOAD·🇬🇧 United Kingdom

Launched May 20, 2023 from Vandenberg Space Force Base

Loading…

Next Passes (next 24 hours)

TLE

FreshSource: CelesTrak SupGP

Epoch: Sep 14, 2026, 21:14 UTC

1 56711C 23068B   26257.88490001 -.00000180  00000+0 -47199-3 0  2571
2 56711  87.9147 210.9625 0001702  92.0419 303.8466 13.16594005    13

Track ONEWEB-0668 in real time with AllMySat

Download on the App Store